星链-32542 (STARLINK-32542)

导读

STARLINK-32542是美国太空探索技术公司(SpaceX)“星链”星座的成员卫星,于2024年11月30日发射升空。作为低轨宽带通信卫星,它采用平板设计,配备太阳电池阵与氪工质霍尔推进器,搭载Ku/Ka波段通信载荷,支持光学星间链路,具备自主避撞能力,旨在为全球提供高速宽带互联网服务,进一步完善星链星座的全球覆盖组网。

Basic Information
目录编号:
62177
目录名称:
STARLINK-32542
国际标识:
2024-225Q
轨道中心:
EARTH
卫星名称:
星链-32542
卫星全名:
星链-32542 (STARLINK-32542)
卫星状态:
在轨 (已飞行564 天)
发射日期:
2024-11-30 UTC
国别 :
美国 (US)
星等 :
--
Orbit Information
数据来源 国际轨道数据 AOE轨道数据
星历时间 2026-06-17T19:47:59+0800
10小时前
查看轨道信息
2026-06-15T06:00:00+0800
3天前
查看轨道信息
半长轴 6950.175km 6950.118km
偏心率 0.0003527 0.0003378
轨道倾角 70.001° 70.004°
近地点辐角 268.799° 272.565°
升交点赤经 272.845° 279.338°
平近点角 91.277° 242.048°
近地点 569.586km 569.633km
远地点 574.49km 574.329km
周期 96.107分钟 96.105分钟
每日圈数 14.983361 14.983545
Detailed Information
固有亮度:
5
最大亮度:
2.5
卫星平台:
Starlink V1.0
覆盖范围:
全球
运营商:
太空探索技术公司
运营商所在国:
美国
制造商(研发单位):
太空探索技术公司
制造商所在国:
美国
使用方式:
暂无
Satellite Introduction
Starlink 计划是 SpaceX 推出的全球卫星互联网项目,通过发射低轨道卫星,为全球尤其是偏远地区提供高速、低延迟的互联网服务。自 2019 年起,Starlink 已部署数千颗卫星,旨在缩小全球数字鸿沟,推动互联网普及。该项目还为军事、航空等行业提供通信支持,带来广泛经济效益。
2D Orbit Map
3D Orbit Map
Orbit Altitude Analysis Chart
Orbit Inclination Analysis Chart
Orbit Comprehensive Analysis Chart
View Comprehensive Chart